Torna al catalogo

STARLINK-33948

AttivoComunicazioniVLEO
NORAD 66147·PAYLOAD·🇺🇸 United States

Lanciato Oct 25, 2025 da Cape Canaveral Space Force Station

Loading…

Prossimi Passaggi (prossime 24 ore)

TLE

AggiornatoSource: CelesTrak SupGP

Epoca: Sep 14, 2026, 23:06 UTC

1 66147C 25240B   26257.96298611  .00035894  00000+0  10604-2 0  2579
2 66147  53.1571 261.4072 0001362  96.3316  90.1434 15.34376116    19

Traccia STARLINK-33948 in tempo reale con AllMySat

Download on the App Store